TimeEDT,TemperatureF,Dew PointF,Humidity,Sea Level PressureIn,VisibilityMPH,Wind Direction,Wind SpeedMPH,Gust SpeedMPH,PrecipitationIn,Events,Conditions,WindDirDegrees,DateUTC
12:56 AM,43.0,41.0,93,30.09,4.0,Calm,Calm,-,N/A,,Clear,0,2012-10-23 04:56:00
1:56 AM,39.9,39.0,97,30.09,3.0,ENE,3.5,-,N/A,,Clear,70,2012-10-23 05:56:00
2:56 AM,41.0,39.9,96,30.09,5.0,East,4.6,-,N/A,,Clear,80,2012-10-23 06:56:00
3:56 AM,42.1,41.0,96,30.10,5.0,Calm,Calm,-,N/A,,Partly Cloudy,0,2012-10-23 07:56:00
4:56 AM,41.0,39.0,93,30.09,4.0,East,3.5,-,N/A,,Partly Cloudy,80,2012-10-23 08:56:00
5:56 AM,43.0,42.1,97,30.11,6.0,NNE,4.6,-,N/A,,Partly Cloudy,20,2012-10-23 09:56:00
6:56 AM,46.9,45.0,93,30.13,10.0,Calm,Calm,-,N/A,,Overcast,0,2012-10-23 10:56:00
7:56 AM,46.9,45.0,93,30.14,9.0,ENE,6.9,-,N/A,,Overcast,60,2012-10-23 11:56:00
8:56 AM,48.9,46.0,90,30.14,9.0,ENE,5.8,-,N/A,,Overcast,60,2012-10-23 12:56:00
11:56 AM,53.1,45.0,74,30.13,10.0,NE,8.1,-,N/A,,Overcast,40,2012-10-23 15:56:00
12:56 PM,55.0,45.0,69,30.11,10.0,NNE,8.1,-,N/A,,Overcast,30,2012-10-23 16:56:00
1:56 PM,55.9,45.0,67,30.10,10.0,North,10.4,-,N/A,,Overcast,360,2012-10-23 17:56:00
2:56 PM,55.0,44.1,67,30.09,10.0,North,8.1,-,N/A,,Overcast,10,2012-10-23 18:56:00
3:56 PM,54.0,44.1,69,30.10,10.0,NNE,10.4,-,N/A,,Overcast,20,2012-10-23 19:56:00
4:56 PM,52.0,43.0,71,30.09,10.0,NE,8.1,-,N/A,,Overcast,40,2012-10-23 20:56:00
5:56 PM,52.0,43.0,71,30.10,10.0,NE,8.1,-,N/A,,Overcast,40,2012-10-23 21:56:00
6:56 PM,52.0,43.0,71,30.11,10.0,NE,9.2,-,N/A,,Overcast,40,2012-10-23 22:56:00
7:56 PM,52.0,42.1,69,30.11,10.0,NE,9.2,-,N/A,,Overcast,50,2012-10-23 23:56:00
8:56 PM,51.1,42.1,71,30.13,10.0,NE,9.2,-,N/A,,Overcast,50,2012-10-24 00:56:00
9:56 PM,50.0,42.1,74,30.13,10.0,NE,11.5,-,N/A,,Overcast,40,2012-10-24 01:56:00
10:56 PM,50.0,42.1,74,30.12,10.0,NE,8.1,-,N/A,,Overcast,50,2012-10-24 02:56:00
11:56 PM,48.9,42.1,77,30.12,10.0,ENE,4.6,-,N/A,,Overcast,70,2012-10-24 03:56:00